Location: Balsareny
(41.8670°N, 1.8830°E)
Time: 01:24:26
(UTC+01:00)

X-37B - Visible Passes

Search period start: 01 December 2021 00:00
Search period end: 11 December 2021 00:00
Orbit: 330 x 341 km, 45.0° (Epoch: 20 November)

Date Brightness Start Highest point End Pass type
(mag) Time Alt. Az. Time Alt. Az. Time Alt. Az.
05 Dec 2.4 19:08:29 10° SSW 19:10:00 20° S 19:10:00 20° S visible
06 Dec 2.6 19:28:23 10° SW 19:29:43 24° SW 19:29:43 24° SW visible
07 Dec 1.9 18:13:55 10° SSW 18:16:19 24° SSE 18:18:08 14° E visible
07 Dec 3.6 19:48:47 10° W 19:49:22 15° W 19:49:22 15° W visible
08 Dec 0.5 18:33:48 10° SW 18:36:37 58° SSE 18:37:44 31° E visible
09 Dec 0.3 18:54:12 10° W 18:57:04 68° NNW 18:57:18 63° NNE visible
10 Dec 1.7 19:14:50 10° W 19:16:51 34° NW 19:16:51 34° NW visible
